Temp
-7 -6 -6 -6 -6 -6 -6 -6 -5 -5 -5 -5 -5 -5 -5 -5 -5 -5 -5 -5 -5 -4 -4 -5 -5 -5 -5 -5 -5 -5 -5 -5 -5 -5 -5 -5 -5 -5 -5 -5 -6 -6 -6
-7 -7 -6 -6 -7 -6 -6 -6 -6 -6 -5 -5 -5 -5 -5 -5 -5 -5 -5 -5 -5 -5 -4 -5 -5 -5 -5 -5 -5 -5 -5 -5 -5 -5 -5 -5 -5 -5 -6 -6 -6 -6 -6
-7 -7 -7 -7 -7 -6 -6 -6 -6 -6 -5 -5 -5 -5 -5 -5 -5 -5 -5 -5 -5 -5 -5 -5 -5 -5 -5 -5 -5 -5 -5 -5 -5 -5 -5 -5 -6 -6 -6 -6 -6 -7 -7
-7 -7 -7 -7 -7 -7 -6 -6 -6 -6 -6 -5 -5 -5 -5 -6 -6 -6 -5 -5 -5 -5 -5 -5 -5 -5 -5 -5 -5 -5 -5 -5 -5 -5 -6 -6 -6 -6 -6 -6 -7 -7 -7
-8 -7 -7 -7 -7 -7 -7 -7 -6 -6 -6 -6 -6 -6 -6 -6 -6 -6 -6 -5 -5 -5 -5 -5 -5 -5 -6 -6 -6 -6 -6 -6 -6 -6 -6 -6 -6 -7 -7 -7 -7 -7 -7
-8 -7 -7 -7 -7 -7 -7 -7 -7 -6 -6 -6 -6 -6 -6 -6 -6 -6 -6 -6 -6 -6 -5 -5 -6 -6 -6 -6 -6 -6 -6 -6 -6 -6 -6 -7 -7 -7 -7 -7 -7 -7 -8
-8 -7 -8 -8 -7 -7 -7 -7 -7 -7 -6 -6 -6 -6 -7 -6 -6 -6 -6 -6 -6 -6 -6 -6 -6 -6 -6 -6 -6 -6 -6 -6 -7 -7 -7 -7 -7 -7 -8 -8 -8 -8 -8
-8 -8 -8 -8 -8 -8 -8 -7 -7 -7 -7 -6 -7 -7 -7 -7 -7 -6 -6 -6 -6 -6 -6 -6 -6 -6 -6 -6 -6 -7 -7 -7 -7 -7 -7 -7 -7 -8 -8 -8 -8 -8 -8
-8 -9 -9 -9 -9 -8 -8 -8 -7 -7 -7 -7 -7 -7 -7 -7 -7 -7 -7 -7 -6 -6 -6 -6 -6 -6 -7 -7 -7 -7 -7 -7 -7 -7 -7 -8 -8 -8 -8 -9 -9 -9 -8
-9 -9 -9 -9 -9 -9 -9 -8 -8 -8 -7 -7 -7 -7 -7 -7 -7 -7 -7 -7 -7 -7 -7 -7 -7 -7 -7 -7 -7 -7 -7 -7 -7 -8 -8 -8 -8 -8 -9 -9 -9 -9 -9
-9 -10 -10 -10 -10 -9 -9 -9 -9 -8 -8 -8 -8 -8 -8 -8 -8 -8 -8 -8 -7 -7 -7 -7 -7 -7 -7 -7 -7 -8 -8 -8 -8 -8 -8 -8 -8 -8 -9 -9 -9 -9 -9
-9 -10 -10 -10 -10 -10 -10 -9 -9 -9 -9 -8 -8 -8 -8 -8 -8 -8 -8 -8 -8 -8 -8 -8 -8 -8 -8 -8 -8 -8 -8 -8 -8 -8 -8 -8 -8 -9 -9 -9 -9 -9 -9
-9 -9 -11 -11 -11 -10 -10 -10 -10 -10 -9 -9 -9 -9 -9 -9 -8 -8 -8 -8 -8 -8 -8 -8 -8 -8 -8 -8 -8 -8 -8 -8 -8 -8 -8 -9 -9 -9 -9 -9 -9 -10 -10
-9 -10 -10 -11 -11 -11 -10 -10 -10 -11 -10 -10 -9 -9 -9 -9 -9 -9 -9 -9 -9 -9 -8 -8 -8 -8 -8 -8 -8 -8 -8 -8 -8 -9 -9 -9 -9 -9 -9 -9 -9 -10 -10
-9 -9 -10 -10 -11 -11 -11 -11 -11 -11 -10 -10 -10 -10 -10 -9 -9 -9 -9 -9 -9 -9 -9 -9 -9 -9 -9 -9 -9 -9 -9 -9 -9 -9 -9 -9 -9 -9 -9 -9 -10 -10 -10
-11 -10 -10 -10 -10 -11 -11 -12 -12 -11 -11 -11 -10 -10 -10 -10 -10 -10 -10 -9 -9 -9 -9 -9 -9 -9 -9 -9 -9 -9 -9 -9 -9 -9 -9 -9 -9 -9 -10 -10 -10 -10 -10
-11 -11 -11 -10 -10 -10 -11 -12 -12 -11 -11 -11 -11 -10 -10 -10 -10 -10 -10 -10 -10 -10 -10 -10 -10 -10 -10 -10 -9 -9 -9 -9 -9 -10 -10 -10 -10 -10 -10 -10 -10 -10 -10
-11 -11 -11 -11 -10 -11 -11 -12 -11 -11 -11 -11 -11 -11 -11 -11 -10 -10 -10 -10 -10 -10 -10 -10 -10 -10 -10 -10 -10 -10 -10 -10 -10 -10 -10 -10 -10 -10 -10 -10 -11 -11 -11
-13 -12 -11 -11 -12 -11 -10 -11 -12 -12 -12 -11 -11 -11 -11 -11 -11 -11 -11 -11 -11 -11 -11 -11 -11 -11 -10 -10 -10 -10 -10 -10 -10 -10 -10 -10 -10 -10 -10 -11 -11 -11 -11
-14 -14 -13 -12 -13 -12 -11 -13 -13 -13 -12 -12 -12 -11 -11 -11 -11 -11 -11 -11 -11 -11 -11 -11 -11 -11 -11 -10 -11 -11 -10 -10 -10 -10 -10 -11 -11 -11 -11 -11 -11 -11 -12
-12 -13 -13 -13 -12 -13 -14 -14 -13 -13 -13 -12 -12 -12 -12 -12 -12 -12 -11 -11 -11 -11 -11 -11 -11 -11 -11 -11 -11 -11 -11 -11 -11 -11 -11 -11 -11 -11 -11 -11 -11 -11 -12
-12 -12 -13 -13 -13 -13 -13 -14 -13 -12 -13 -12 -12 -12 -12 -12 -12 -12 -12 -12 -12 -12 -12 -11 -11 -11 -11 -11 -11 -11 -11 -11 -11 -11 -11 -11 -11 -12 -11 -12 -12 -12 -12
-13 -13 -13 -13 -13 -13 -13 -13 -13 -13 -13 -13 -13 -12 -12 -13 -12 -13 -12 -12 -12 -12 -12 -12 -11 -11 -11 -12 -11 -11 -11 -11 -11 -11 -12 -12 -12 -12 -12 -12 -12 -12 -12
-13 -13 -13 -13 -13 -13 -13 -13 -13 -13 -13 -13 -13 -13 -13 -13 -13 -13 -13 -13 -12 -12 -12 -12 -12 -12 -12 -11 -12 -12 -11 -10 -11 -11 -12 -12 -12 -12 -12 -12 -13 -13 -13
-13 -13 -14 -13 -14 -14 -13 -13 -13 -13 -13 -13 -13 -13 -13 -13 -13 -14 -13 -13 -13 -13 -13 -13 -13 -13 -12 -12 -12 -12 -12 -11 -11 -11 -11 -13 -13 -12 -12 -13 -13 -13 -13
-13 -13 -14 -14 -14 -14 -14 -14 -13 -13 -13 -13 -13 -13 -14 -14 -13 -13 -14 -14 -14 -14 -13 -13 -13 -13 -13 -12 -12 -12 -12 -12 -12 -12 -12 -12 -13 -13 -12 -13 -13 -13 -13
Height
5883 5886 5888 5890 5891 5892 5893 5893 5893 5893 5895 5895 5896 5896 5896 5896 5895 5895 5896 5896 5895 5894 5894 5893 5892 5891 5890 5889 5888 5888 5887 5886 5886 5886 5885 5883 5882 5880 5878 5876 5874 5872 5869
5881 5883 5886 5888 5889 5890 5891 5892 5893 5893 5893 5894 5895 5895 5895 5895 5895 5895 5895 5895 5895 5894 5893 5892 5891 5890 5889 5888 5887 5887 5886 5886 5885 5885 5884 5883 5881 5880 5878 5876 5874 5871 5869
5878 5880 5883 5885 5887 5889 5890 5891 5892 5892 5893 5893 5894 5894 5894 5894 5894 5894 5894 5894 5894 5893 5892 5891 5891 5890 5889 5888 5887 5886 5886 5885 5884 5884 5883 5882 5880 5878 5877 5875 5873 5871 5868
5875 5877 5879 5882 5885 5887 5889 5890 5891 5891 5892 5892 5893 5893 5893 5893 5893 5894 5893 5893 5893 5892 5891 5891 5890 5889 5888 5887 5886 5885 5885 5884 5883 5882 5882 5881 5879 5878 5876 5874 5872 5870 5867
5872 5875 5876 5879 5882 5885 5886 5889 5889 5890 5890 5890 5891 5892 5892 5893 5893 5893 5892 5892 5892 5891 5891 5890 5889 5888 5887 5886 5885 5884 5884 5882 5882 5881 5881 5880 5878 5877 5875 5873 5871 5868 5866
5869 5871 5873 5876 5879 5882 5883 5886 5888 5888 5888 5889 5889 5890 5891 5891 5892 5892 5891 5891 5890 5890 5889 5889 5888 5887 5886 5885 5885 5883 5883 5882 5882 5880 5879 5879 5877 5875 5874 5872 5869 5867 5864
5865 5867 5869 5872 5876 5878 5881 5883 5886 5887 5887 5887 5888 5888 5889 5890 5890 5890 5890 5890 5889 5888 5888 5887 5886 5886 5885 5884 5883 5882 5882 5880 5880 5879 5877 5877 5875 5873 5872 5869 5867 5865 5862
5859 5862 5865 5869 5872 5875 5878 5880 5882 5884 5885 5885 5886 5886 5887 5888 5888 5889 5889 5888 5888 5887 5887 5886 5885 5884 5884 5883 5882 5881 5880 5879 5879 5877 5876 5875 5874 5872 5869 5867 5865 5862 5860
5854 5857 5861 5864 5868 5872 5873 5876 5878 5880 5882 5883 5884 5885 5885 5885 5886 5886 5886 5886 5886 5886 5885 5885 5884 5883 5882 5882 5881 5880 5879 5878 5877 5876 5875 5874 5872 5870 5867 5865 5862 5860 5857
5848 5852 5856 5860 5863 5867 5870 5872 5874 5876 5878 5880 5881 5882 5882 5883 5883 5884 5884 5884 5884 5884 5883 5883 5883 5882 5881 5880 5879 5878 5877 5876 5876 5875 5873 5872 5870 5868 5865 5862 5860 5857 5855
5842 5845 5850 5854 5858 5862 5865 5867 5870 5872 5874 5876 5878 5879 5880 5880 5881 5882 5882 5882 5882 5882 5882 5881 5881 5880 5880 5879 5877 5877 5875 5875 5874 5873 5871 5870 5868 5865 5863 5860 5857 5854 5851
5836 5837 5843 5849 5853 5856 5861 5864 5866 5868 5870 5872 5873 5875 5877 5877 5878 5879 5880 5880 5880 5880 5879 5879 5878 5878 5877 5876 5875 5874 5873 5873 5871 5870 5869 5867 5864 5861 5860 5857 5854 5850 5847
5832 5828 5833 5841 5848 5852 5856 5860 5864 5863 5866 5868 5869 5871 5873 5874 5875 5875 5876 5876 5877 5877 5877 5877 5876 5876 5875 5874 5873 5872 5871 5870 5868 5867 5865 5863 5861 5858 5856 5853 5850 5847 5844
5819 5825 5827 5834 5842 5847 5852 5855 5859 5860 5862 5864 5866 5866 5868 5870 5871 5872 5872 5872 5873 5873 5873 5874 5873 5873 5873 5872 5871 5869 5868 5866 5865 5863 5861 5859 5857 5855 5852 5849 5846 5843 5840
5822 5819 5827 5827 5834 5841 5846 5850 5853 5855 5857 5859 5862 5863 5863 5865 5867 5868 5869 5869 5869 5869 5869 5869 5869 5869 5868 5868 5867 5866 5865 5863 5862 5860 5858 5856 5854 5851 5849 5845 5842 5839 5836
5816 5818 5826 5827 5827 5834 5838 5844 5847 5850 5851 5853 5856 5859 5859 5860 5862 5863 5865 5865 5865 5865 5865 5865 5865 5865 5864 5863 5862 5861 5860 5859 5857 5855 5853 5851 5849 5846 5844 5841 5838 5834 5830
5816 5818 5819 5822 5825 5828 5832 5837 5840 5844 5846 5848 5850 5853 5854 5855 5856 5858 5859 5860 5860 5859 5860 5860 5860 5860 5860 5859 5857 5856 5855 5854 5853 5850 5848 5846 5844 5841 5838 5835 5831 5827 5824
5805 5811 5815 5820 5823 5825 5826 5829 5835 5839 5841 5843 5844 5847 5848 5850 5851 5852 5853 5854 5854 5854 5854 5855 5856 5855 5854 5853 5852 5851 5850 5848 5847 5846 5843 5841 5838 5835 5833 5830 5826 5822 5818
5794 5799 5810 5814 5814 5818 5822 5825 5827 5832 5836 5839 5841 5842 5842 5843 5845 5846 5847 5847 5848 5849 5848 5848 5849 5849 5848 5848 5847 5845 5844 5843 5842 5839 5838 5835 5833 5830 5826 5824 5820 5817 5813
5796 5798 5801 5806 5808 5812 5814 5816 5822 5827 5830 5832 5833 5836 5836 5836 5839 5840 5840 5840 5841 5842 5842 5841 5841 5842 5841 5840 5841 5840 5838 5837 5835 5833 5831 5828 5825 5822 5819 5814 5811 5810 5807
5795 5796 5797 5801 5804 5806 5809 5813 5817 5822 5823 5825 5826 5828 5830 5831 5831 5832 5832 5832 5832 5833 5833 5834 5833 5834 5834 5833 5833 5833 5832 5829 5828 5825 5823 5820 5817 5814 5811 5807 5803 5801 5798
5790 5793 5792 5794 5797 5801 5805 5808 5811 5813 5816 5817 5819 5820 5822 5823 5824 5824 5824 5824 5824 5825 5825 5825 5825 5825 5825 5824 5824 5823 5825 5823 5820 5817 5814 5810 5807 5804 5802 5798 5796 5793 5789
5781 5785 5788 5789 5792 5795 5798 5800 5804 5805 5808 5809 5810 5811 5813 5814 5815 5815 5816 5816 5816 5816 5816 5815 5815 5816 5816 5816 5814 5813 5813 5813 5811 5809 5807 5803 5800 5796 5793 5790 5787 5785 5781
5774 5776 5779 5783 5785 5786 5788 5792 5794 5796 5799 5801 5801 5802 5803 5803 5804 5806 5806 5808 5809 5808 5808 5807 5807 5807 5806 5806 5804 5802 5801 5799 5798 5799 5795 5791 5788 5786 5784 5782 5779 5776 5772
5768 5770 5772 5774 5776 5779 5780 5782 5784 5786 5786 5788 5791 5792 5794 5792 5792 5794 5796 5797 5798 5798 5799 5798 5797 5795 5795 5795 5794 5792 5790 5789 5786 5784 5784 5780 5776 5774 5773 5771 5768 5766 5763
5762 5764 5764 5766 5768 5770 5770 5773 5775 5778 5779 5780 5781 5783 5784 5785 5786 5785 5784 5784 5787 5787 5787 5786 5785 5785 5784 5784 5782 5780 5778 5777 5774 5772 5771 5769 5766 5761 5761 5760 5758 5755 5753
Wind_Speed
20 18 16 14 12 10 9 7 7 6 6 5 5 4 4 4 3 3 3 3 5 4 4 4 3 2 2 2 2 2 3 4 5 7 8 9 11 12 13 14 16 16 18
21 19 19 17 14 12 10 9 8 8 7 7 6 4 4 4 3 4 4 5 5 4 4 3 2 1 1 1 1 2 3 4 5 7 8 9 10 11 13 14 16 16 18
24 22 20 18 16 14 12 10 9 9 8 8 7 6 5 4 4 4 5 5 5 5 4 4 3 2 1 1 2 2 3 4 6 7 7 10 11 12 14 16 16 17 19
26 24 21 20 16 15 14 12 11 11 10 9 8 6 6 6 6 6 6 6 6 6 5 5 3 2 1 1 2 3 4 5 6 7 8 10 12 13 15 16 17 17 19
28 26 24 22 19 15 14 14 13 12 11 10 9 9 8 8 8 7 6 6 6 6 6 5 4 3 1 3 3 3 5 5 6 8 9 10 12 14 16 17 17 18 19
31 28 26 24 22 19 16 15 15 13 13 12 11 10 10 9 9 8 7 7 7 7 7 6 5 3 3 3 3 2 4 5 6 8 9 11 12 15 17 18 18 18 19
33 31 27 25 23 21 19 16 15 15 14 13 13 12 12 11 11 10 9 8 8 8 8 7 6 5 5 3 3 3 4 5 7 8 9 11 13 15 17 19 18 18 19
37 33 29 26 24 22 19 17 17 15 14 14 14 14 14 13 12 11 10 10 9 9 9 8 7 5 5 4 3 4 5 5 7 8 10 11 13 15 18 19 19 18 20
39 35 31 27 25 22 19 17 16 16 15 16 15 16 15 15 14 13 12 11 11 11 10 9 8 6 5 5 5 5 6 5 7 9 11 12 14 17 19 20 20 20 21
38 36 34 32 29 25 22 19 17 16 16 16 17 17 18 16 15 15 13 13 12 11 10 10 9 7 6 6 6 6 6 8 9 12 13 14 16 18 20 22 22 21 21
45 42 39 35 31 28 25 22 19 17 17 16 18 19 19 18 17 15 14 13 12 12 11 10 9 9 8 8 8 8 8 10 11 13 15 17 18 20 22 23 24 22 22
44 44 40 36 31 28 24 21 20 18 18 18 17 19 20 19 19 17 16 14 13 12 12 12 11 10 10 10 10 10 10 12 13 15 17 18 20 22 23 25 25 25 24
49 47 44 35 32 27 24 21 20 20 20 18 19 20 20 21 20 18 16 15 14 13 13 13 13 12 12 12 12 12 12 14 15 16 18 19 21 23 25 27 27 27 27
32 38 43 35 31 28 25 22 22 21 21 20 20 22 21 22 21 19 17 16 15 16 15 15 15 15 15 15 15 15 15 15 17 18 20 21 23 24 26 28 30 30 29
33 30 36 39 36 31 28 24 23 22 22 22 21 23 23 24 23 23 20 18 18 18 18 18 17 17 17 17 18 18 18 19 19 20 22 24 25 26 27 29 30 30 31
50 29 37 37 39 33 27 24 24 23 22 22 23 24 24 25 26 25 24 23 22 21 20 19 20 19 19 19 20 20 20 21 22 23 25 26 28 29 30 31 32 31 32
50 37 28 29 35 31 29 26 25 23 21 21 24 26 27 27 28 28 27 27 26 24 22 22 21 21 21 22 22 22 23 23 24 25 27 28 29 30 32 34 34 34 32
30 44 36 32 32 29 31 32 26 23 22 22 24 26 28 30 31 30 29 29 29 27 25 25 25 25 25 24 24 23 24 24 26 28 29 30 31 32 34 34 35 36 33
34 28 37 39 40 38 28 29 27 24 24 25 25 28 31 31 32 32 30 30 30 30 28 28 28 28 28 28 27 27 27 27 29 30 32 32 33 34 36 36 36 33 30
32 31 34 36 41 45 37 26 24 26 28 27 28 30 32 33 31 33 32 31 32 32 32 32 31 32 33 33 32 30 31 31 32 33 35 36 37 36 37 40 41 37 31
31 33 34 37 37 42 37 34 34 30 35 34 32 33 33 33 33 30 32 34 34 35 36 36 36 36 35 36 36 35 32 35 36 36 38 41 40 39 41 41 41 38 38
33 33 37 40 40 39 37 34 34 40 39 40 37 35 34 34 34 35 36 31 35 38 36 37 40 40 39 39 40 39 36 35 38 42 42 44 44 44 45 42 40 39 39
33 33 35 42 42 42 40 40 44 40 38 42 40 41 40 36 37 39 39 39 38 36 38 40 41 44 47 47 48 47 45 43 46 44 43 45 47 47 45 43 41 40 38
32 35 36 41 41 42 45 46 44 47 49 43 45 43 42 42 43 42 40 40 41 42 42 41 42 42 46 48 49 51 54 54 55 54 49 49 50 47 45 43 41 39 37
40 41 40 38 45 46 42 45 46 46 47 48 46 45 42 40 42 44 44 43 45 45 44 44 46 48 48 47 48 50 54 56 57 57 55 46 45 47 45 43 39 38 37
44 45 47 46 45 46 48 49 47 42 40 42 46 46 42 41 41 43 45 48 45 46 48 48 52 53 54 56 56 55 56 55 53 53 53 50 47 46 45 43 39 38 37
Wind_Direction
215 225 233 235 230 229 231 227 224 226 229 235 231 231 236 253 270 292 299 295 296 309 309 313 340 21 34 43 34 31 50 45 23 13 11 8 7 4 3 3 1 1 360
217 219 229 234 232 230 234 230 226 227 224 233 231 229 240 253 263 278 281 286 288 288 289 299 314 317 322 12 7 24 34 31 16 7 6 1 1 359 -0 359 358 356 356
215 216 225 231 234 233 236 231 229 228 223 227 229 233 242 248 260 265 272 279 279 275 273 270 263 264 292 342 348 16 23 15 9 3 358 357 358 359 357 355 352 351 352
217 218 221 227 230 229 233 234 230 228 225 223 229 232 236 249 257 259 263 269 271 269 263 261 256 261 282 323 346 349 341 356 357 358 2 359 360 356 353 350 345 344 347
218 221 222 224 226 225 228 234 234 230 226 223 229 234 236 245 252 254 257 265 268 266 266 260 251 255 292 313 324 341 342 359 5 7 1 359 0 356 350 346 341 339 342
219 221 223 224 224 224 225 234 234 232 230 226 226 230 237 244 249 248 249 252 254 250 250 253 260 268 279 289 307 348 353 6 3 4 1 357 355 351 344 341 337 336 339
220 221 222 223 224 224 226 226 233 237 233 228 228 228 234 241 245 246 249 249 250 250 250 252 255 266 280 301 320 338 359 358 355 358 357 349 345 346 344 342 338 335 338
218 218 217 217 219 219 223 223 232 238 238 238 234 232 233 237 242 243 247 250 252 252 254 258 262 270 285 295 308 328 336 352 345 344 343 339 337 342 344 341 337 334 337
219 211 213 213 215 215 213 219 226 234 241 242 240 237 233 237 240 242 244 247 251 255 259 262 265 272 280 288 294 307 317 325 332 334 336 338 334 338 345 344 338 337 335
216 215 214 213 212 213 217 218 222 230 239 243 241 241 238 237 238 242 244 246 251 255 258 265 272 273 275 277 286 297 307 321 330 333 337 332 333 335 338 341 337 333 331
225 213 208 208 210 215 218 220 224 231 238 239 242 241 241 239 240 241 242 247 253 259 260 265 269 271 271 275 283 298 311 320 325 329 329 331 330 331 334 334 336 333 330
210 202 204 207 209 213 218 221 225 232 240 245 245 244 240 240 240 239 241 245 253 259 262 265 268 272 275 281 289 299 308 315 319 322 322 325 325 326 327 329 330 332 330
212 211 195 199 206 210 218 225 234 235 239 243 245 247 248 245 246 244 245 250 259 264 269 274 276 278 280 283 291 297 302 307 311 311 315 318 319 321 323 325 326 328 328
216 201 191 191 202 211 217 220 230 234 239 242 246 245 248 252 251 251 251 254 262 269 274 275 277 280 285 289 291 293 295 298 304 306 310 312 315 317 318 320 322 323 326
191 200 204 196 200 205 214 218 224 233 239 244 245 248 247 250 255 256 256 256 260 265 268 271 273 277 282 286 289 293 296 297 299 302 306 308 311 313 314 315 316 319 323
241 216 206 216 204 204 208 216 224 230 236 241 245 247 248 248 250 254 258 257 257 261 267 272 275 276 279 282 285 288 291 293 297 301 303 305 308 310 311 313 314 316 319
246 231 236 232 215 221 218 223 227 236 241 245 249 250 248 248 248 249 250 255 257 260 265 269 270 272 275 277 279 283 287 292 296 296 297 300 302 305 309 311 313 315 315
252 237 244 240 221 221 216 216 235 243 251 257 259 261 257 253 252 251 250 252 257 259 262 266 267 268 270 274 279 282 284 286 289 291 294 298 302 304 305 307 307 312 312
272 257 246 244 252 225 230 224 219 240 252 259 261 264 262 260 257 255 255 255 257 260 263 264 266 268 272 274 276 280 284 288 289 290 292 295 297 298 302 302 305 305 304
265 269 277 258 265 254 267 273 272 270 267 265 264 265 263 264 262 260 259 259 259 260 263 266 267 267 270 274 278 281 283 286 289 291 293 295 296 298 300 302 303 304 302
256 259 263 268 264 265 261 269 266 270 272 267 267 264 261 263 263 263 263 260 258 258 259 261 264 267 270 272 275 276 283 288 291 292 295 295 294 295 300 299 300 301 299
254 261 262 263 265 267 260 256 262 258 264 267 264 264 260 258 262 264 261 265 265 260 261 265 265 266 269 275 277 277 280 285 291 293 293 294 296 295 298 295 298 298 296
258 261 262 261 264 264 265 265 256 258 261 266 269 266 265 258 260 261 265 266 266 266 266 270 271 271 271 278 279 284 284 284 290 291 290 291 290 293 292 293 294 293 292
257 262 264 259 261 259 261 262 258 254 251 255 259 261 260 260 258 262 261 263 265 269 270 273 274 274 276 275 279 281 282 284 285 286 287 289 290 290 288 290 291 288 288
253 259 259 260 257 257 261 258 260 251 251 247 252 258 258 262 263 263 264 268 266 267 269 270 273 274 271 273 280 284 283 283 286 287 288 287 286 287 289 290 290 287 289
255 258 257 257 256 260 256 258 257 254 255 253 251 254 257 263 264 262 263 262 266 272 272 272 277 276 276 281 285 288 287 289 290 290 289 287 286 289 290 289 288 288 289